Philadelphia, PA

11:25 AM EDT on August 22, 2017 (GMT -0400)
Philadelphia International

Weather History for KPHL - July, 2012

Change the Weather History Date:

Saturday, July 7, 2012

  Actual Average Record
Temperature  
Mean Temperature 90 °F 78 °F  
Max Temperature 101 °F 87 °F 103 °F (2010)
Min Temperature 79 °F 69 °F 55 °F (1968)
Degree Days  
Heating Degree Days 0 0  
Month to date heating degree days 0 0  
Since 1 June heating degree days 7 11  
Since 1 July heating degree days 0 0  
Cooling Degree Days 25 13  
Month to date cooling degree days 148 88  
Year to date cooling degree days 582 437  
Since 1 June cooling degree days 418 346  
Growing Degree Days 40 (Base 50)    
Moisture  
Dew Point 70 °F    
Average Humidity 54    
Maximum Humidity 74    
Minimum Humidity 33    
Precipitation  
Precipitation T in 0.13 in 2.97 in (1941)
Month to date precipitation T 0.90  
Year to date precipitation 14.06 21.07  
Snow  
Snow 0.00 in 0.00 in 0.00 in (1870)
Month to date snowfall 0.0 0.0  
Since 1 June snowfall 0.0 0.0  
Since 1 July snowfall 0.0 0.0  
Snow Depth 0.00 in    
Sea Level Pressure  
Sea Level Pressure 29.85 in    
Wind  
Wind Speed 8 mph (WSW)    
Max Wind Speed 23 mph    
Max Gust Speed 30 mph    
Visibility 10 miles    
Events Rain , Thunderstorm    
T = Trace of Precipitation, MM = Missing Value Source: NWS Daily Summary

Daily Weather History Graph

Daily Weather History Graph

Search for Another Location

Airport or City:

Trip Planner

Search our weather history database for the weather conditions in past years. The results will help you decide how hot, cold, wet, or windy it might be!

Date:

Astronomy

Jul. 07, 2012 Rise Set
Actual Time 5:39 AM EDT 8:31 PM EDT
Civil Twilight 5:07 AM EDT 9:04 PM EDT
Nautical Twilight 4:26 AM EDT 9:44 PM EDT
Astronomical Twilight 3:40 AM EDT 10:31 PM EDT
Moon 10:50 PM EDT (7/7) 10:01 AM EDT (7/7)
Length of Visible Light 15h 56m
Length of Day
14h 51m
Waning Gibbous, 82% of the Moon is Illuminated
Jul 7
Waning Gibbous
Jul 10
Last Quarter
Jul 19
New
Jul 26
First Quarter
Aug 1
Full

Hourly Weather History & Observations

Time (EDT) Temp. Heat Index Dew Point Humidity Pressure Visibility Wind Dir Wind Speed Gust Speed Precip Events Conditions
12:54 AM 82.0 °F 85.9 °F 70.0 °F 67% 29.90 in 10.0 mi SSW 8.1 mph - N/A   Mostly Cloudy
1:54 AM 81.0 °F 84.4 °F 70.0 °F 69% 29.90 in 10.0 mi WSW 6.9 mph - N/A   Mostly Cloudy
2:54 AM 82.0 °F 85.5 °F 69.1 °F 65% 29.88 in 10.0 mi SW 10.4 mph - N/A   Scattered Clouds
3:54 AM 80.1 °F 82.9 °F 69.1 °F 69% 29.87 in 10.0 mi SW 9.2 mph - N/A   Mostly Cloudy
4:54 AM 80.1 °F 83.2 °F 70.0 °F 71% 29.87 in 10.0 mi SW 10.4 mph - N/A   Scattered Clouds
5:44 AM 80.6 °F 84.6 °F 71.6 °F 74% 29.89 in 9.0 mi SW 6.9 mph - N/A   Scattered Clouds
5:54 AM 80.1 °F 83.6 °F 71.1 °F 74% 29.89 in 9.0 mi WSW 4.6 mph - N/A   Scattered Clouds
6:44 AM 80.6 °F 84.6 °F 71.6 °F 74% 29.88 in 10.0 mi SW 5.8 mph - N/A   Scattered Clouds
6:54 AM 81.0 °F 85.2 °F 72.0 °F 74% 29.88 in 10.0 mi WSW 5.8 mph - N/A   Scattered Clouds
7:54 AM 82.9 °F 87.5 °F 71.1 °F 67% 29.89 in 10.0 mi WSW 6.9 mph - N/A   Mostly Cloudy
8:54 AM 86.0 °F 90.7 °F 70.0 °F 59% 29.89 in 10.0 mi WNW 5.8 mph - N/A   Mostly Cloudy
9:54 AM 89.1 °F 95.0 °F 71.1 °F 55% 29.87 in 10.0 mi West 8.1 mph - N/A   Mostly Cloudy
10:54 AM 91.0 °F 95.6 °F 69.1 °F 48% 29.87 in 10.0 mi SW 8.1 mph - N/A   Mostly Cloudy
11:54 AM 95.0 °F 99.0 °F 66.9 °F 40% 29.86 in 10.0 mi SW 11.5 mph - N/A   Mostly Cloudy
12:54 PM 98.1 °F 103.0 °F 68.0 °F 37% 29.86 in 10.0 mi WSW 12.7 mph - N/A   Mostly Cloudy
1:54 PM 98.1 °F 103.0 °F 68.0 °F 37% 29.85 in 10.0 mi West 10.4 mph 16.1 mph N/A   Mostly Cloudy
2:54 PM 100.0 °F 104.9 °F 66.9 °F 34% 29.82 in 10.0 mi West 12.7 mph 17.3 mph N/A   Mostly Cloudy
3:54 PM 100.0 °F 104.2 °F 66.0 °F 33% 29.81 in 10.0 mi WSW 11.5 mph - N/A   Mostly Cloudy
4:54 PM 100.9 °F 105.3 °F 66.0 °F 32% 29.79 in 10.0 mi WSW 11.5 mph - N/A   Mostly Cloudy
5:54 PM 100.0 °F 104.9 °F 66.9 °F 34% 29.79 in 10.0 mi SW 11.5 mph - N/A   Mostly Cloudy
6:54 PM 96.1 °F 103.5 °F 71.1 °F 44% 29.80 in 10.0 mi SW 12.7 mph - N/A   Overcast
7:22 PM 96.8 °F 105.1 °F 71.6 °F 44% 29.84 in 10.0 mi NNW 13.8 mph 24.2 mph N/A Thunderstorm Thunderstorm
7:28 PM 95.0 °F 99.5 °F 68.0 °F 41% 29.84 in 10.0 mi NNW 23.0 mph 29.9 mph N/A Thunderstorm Thunderstorm
7:45 PM 86.0 °F 93.4 °F 73.4 °F 66% 29.81 in 10.0 mi NW 11.5 mph - 0.00 in Rain Light Rain
7:54 PM 86.0 °F 91.5 °F 71.1 °F 61% 29.80 in 10.0 mi WNW 10.4 mph - 0.00 in   Overcast
8:54 PM 84.9 °F 90.7 °F 72.0 °F 65% 29.82 in 10.0 mi Calm Calm - N/A   Mostly Cloudy
9:54 PM 84.0 °F 90.2 °F 73.0 °F 69% 29.83 in 10.0 mi South 3.5 mph - N/A   Mostly Cloudy
10:54 PM 86.0 °F 91.5 °F 71.1 °F 61% 29.81 in 10.0 mi WSW 6.9 mph - N/A   Overcast
11:54 PM 84.9 °F 89.4 °F 70.0 °F 61% 29.83 in 10.0 mi NNW 5.8 mph - N/A   Mostly Cloudy